Regional Weather Roundup
Issued by NWS Wakefield, VA

Home | Current Version | Previous Version | Text Only | Print | Product List | Glossary Off
Versions: 1 2 3 4 5 6 7 8 9 10 11 12 13 14 15 16 17 18 19 20 21 22 23 24 25 26 27

000
ASUS41 KAKQ 272216
RWRAKQ

REGIONAL WEATHER ROUNDUP
NATIONAL WEATHER SERVICE WAKEFIELD VA
600 PM EDT TUE JUN 27 2017

Note: "fair" indicates few or no clouds below 12,000 feet with no
significant weather and/or obstructions to visibility. * = Denotes
station may not report precipitation (e.g., rain,snow,etc.),
thunder or fog.

VAZ042-051-052>054-056-272300-
NORTHERN VIRGINIA

CITY           SKY/WX    TMP DP  RH WIND       PRES   REMARKS
WASH NATIONAL  CLOUDY    79  50  36 W7        29.98F
DULLES         MOSUNNY   79  45  29 W12G18    29.99S
FORT BELVOIR   CLOUDY    80  47  30 W8        29.98S
QUANTICO       PTSUNNY   80  53  39 NW3       29.99S
FREDERICKSBRG* MOSUNNY   80  53  39 W6        29.98F
STAFFORD*      PTSUNNY   79  51  37 W3        30.03F
WARRENTON      MOSUNNY   82  39  21 W8        29.99F
CULPEPER*      PTSUNNY   80  48  32 NW5       29.99F
MANASSAS*      CLOUDY    80  47  31 W8        29.99S
LEESBURG*      SUNNY     81  50  34 NW12      30.00F
WINCHESTER     SUNNY     73  43  33 NW10G22   30.01S
FRONT ROYAL*   PTCLDY    77  45  31 NW10G17   30.00S
LURAY*         PTCLDY    77  43  29 W5        30.01F
$$

VAZ048-049-060>072-079>083-272300-
CENTRAL AND SOUTH CENTRAL VIRGINIA

CITY           SKY/WX    TMP DP  RH WIND       PRES   REMARKS
RICHMOND       CLOUDY    81  52  36 SW14      29.99F
CHESTERFIELD*  FAIR      80  53  39 W9        30.00F
PETERSBURG*    CLOUDY    77  57  49 CALM      30.01F
HANOVER        MOSUNNY   80  51  36 W9        30.00F
TAPPAHANNOCK*  MOSUNNY   81  43  26 S7        29.99F
QUINTON*       FAIR      76  60  56 W3        29.98F
CHARLOTTSVILLE SUNNY     80  42  25 W7        30.00F
GORDONSVILLE*  MOCLDY    77  54  45 S3        30.00S
ORANGE*        CLOUDY    77  54  44 SW6       29.99F
LOUISA*        PTSUNNY   79  61  53 CALM      30.00S
BUMPASS*       FAIR      77  55  46 SW7       30.00S
FARMVILLE*     CLOUDY    78  44  29 W8        30.01F
CREWE*         FAIR      78  44  29 W7        30.02S
FORT PICKETT*  FAIR      76  47  36 W9        30.02F
CHASE CITY*    FAIR      76  56  48 W3        30.04F
CLARKSVILLE*   FAIR      77  55  47 SW3       30.04F
SOUTH HILL*    CLOUDY    75  57  53 W3        30.09S
LAWRENCEVILLE* FAIR      76  58  53 W3        30.02S
EMPORIA*       MOSUNNY   77  54  44 W5        30.03R
$$

VAZ088>098-272300-
SOUTHEAST VIRGINIA

CITY           SKY/WX    TMP DP  RH WIND       PRES   REMARKS
NORFOLK        CLOUDY    79  56  45 E5        29.98F
VIRGINIA BEACH PTSUNNY   76  61  59 E5        29.98F
NORFOLK NAVAL  NOT AVBL
WEST POINT*    PTSUNNY   79  53  41 SW6       29.99F
SALUDA*        FAIR      77  59  53 S3        29.98F
NEWPORT NEWS   PTSUNNY   79  53  40 W5        29.98F
LANGLEY AFB    CLOUDY    77  61  57 E5        29.98F
FORT EUSTIS    CLOUDY    83  56  39 NW6       29.96F
WILLIAMSBURG*  MOSUNNY   82  55  39 CALM      30.00S
HR EXEC AP*    FAIR      81  63  54 N3        29.95F
FRANKLIN*      MOSUNNY   81  54  39 W9        29.99F
US460-WAKEFLD  MOSUNNY   79  57  46 W5        30.00S
$$

VAZ020-022-025-037-045-272300-
WEST CENTRAL AND SOUTHWEST VIRGINIA

CITY           SKY/WX    TMP DP  RH WIND       PRES   REMARKS
STAUNTON*      MOSUNNY   74  42  31 W8        30.05F
WAYNESBORO*    PTCLDY    72  44  37 CALM      30.05S
HOT SPRINGS VA MOSUNNY   64  27  24 W14G21    30.15S
LYNCHBURG      MOSUNNY   77  46  33 VRB6      30.05S
DANVILLE       MOSUNNY   77  54  44 W8        30.05F
SOUTH BOSTON*  FAIR      78  53  40 W3        30.04F
MARTINSVILLE   SUNNY     77  46  34 CALM      30.09F
ROANOKE        MOSUNNY   77  44  30 W10       30.08S
BLACKSBURG     MOSUNNY   72  44  36 NW9       30.13F
DUBLIN*        SUNNY     73  32  22 NW9       30.12S
MARION*        MOSUNNY   71  41  33 NW7       30.15S
HILLSVILLE*    MOSUNNY   69  37  30 W3        30.12F
RICHLANDS*     FAIR      70  -1   6 NW7       30.14F
WISE*          SUNNY     70  43  37 CALM      30.16S
ABINGDON*      MOSUNNY   74  46  36 NW6       30.11F
$$

MDZ021>025-VAZ099-100-272300-
SOUTHERN MARYLAND AND THE DELMARVA PENINSULA

CITY           SKY/WX    TMP DP  RH WIND       PRES   REMARKS
PATUXENT RIVER CLOUDY    76  57  51 E5        29.97F
BAY BRIDGE APT MOSUNNY   77  61  57 S5        29.98F
LEONARDTOWN    CLOUDY    77  52  41 W3        29.99F
DOVER          MOSUNNY   79  54  42 W13       29.95S
GEORGETOWN     CLOUDY    79  52  38 SW7       29.97S
EASTON         PTSUNNY   77  50  38 NW9       30.02R
CAMBRIDGE      SUNNY     75  57  53 CALM      29.98F
SALISBURY      PTSUNNY   76  55  48 W7        29.98R
OCEAN CITY     MOSUNNY   75  59  57 SW6       29.98F
WALLOPS ISLAND PTSUNNY   79  51  37 W7        29.98S
ACCOMACK*      CLOUDY    78  51  39 N3        29.98F
$$

NCZ012>017-030>032-272300-
NORTH CENTRAL AND EASTERN NORTH CAROLINA

CITY           SKY/WX    TMP DP  RH WIND       PRES   REMARKS
ROANOKE RAPIDS FAIR      79  57  47 W7        30.01F
RALEIGH        CLOUDY    78  53  41 NW6       30.05S
ELIZABETH CITY MOSUNNY   81  63  54 W8        29.97F
AHOSKIE*         N/A     78  62  58 CALM      30.01S
EDENTON*       MOSUNNY   84  60  44 CALM      29.99F
CURRITUCK*     CLOUDY    77  65  67 NE13      29.99S
KILL DEVIL HLS MOSUNNY   82  61  49 S3        29.97F
MANTEO         PTSUNNY   80  62  54 SW7       29.98F
CAPE HATTERAS  NOT AVBL
TARBORO*       NOT AVBL
GOLDSBORO      CLOUDY    83  56  40 NW6       29.99F
WASHINGTON     SUNNY    N/A N/A N/A W6        30.00F
GREENVILLE     SUNNY     82  55  39 W6        30.01F
NEW BERN       PTSUNNY   83  64  52 NW6       30.00F
WILMINGTON     PTSUNNY   83  66  56 S8        30.01R
$$

VAZ048-272300-
ELSEWHERE

CITY           SKY/WX    TMP DP  RH WIND       PRES   REMARKS
HARRISBURG PA  PTSUNNY   76  49  38 W15       29.97R
BALTIMORE      PTSUNNY   79  47  32 NW12G18   29.97S
ANNAPOLIS      CLOUDY    73  58  59 SW5       29.98S
ANDREWS AFB    CLOUDY    77  49  37 NW7       29.98S
PHILADELPHIA   MOSUNNY   79  48  33 W14G23    29.95S
HENDERSON NC   CLOUDY    72  56  57 CALM      30.05F
GREENSBORO     MOSUNNY   78  51  38 N7        30.06F
ROCKY MOUNT    CLOUDY    82  57  42 NW7       30.01F
$$

VAZ100-272300-
MARINE

STATION/POSITION TIME  TEMP    WIND        PRES    WAVE   SWELL
                       AIR SEA DIR/SP/G            HT/PER HT/PER
                 (UTC) (F)     (DEG/KT/KT) (MB)    (FT/S) (FT/S)
BRANDYWINE LGT   2148          190/ 12/ 13 1015.2R
CAPE MAY NJ      2148   73 73  160/  6/  8 1014.6R
LEWES DE         2148   75 72  190/  6/  9 1014.9R
15NM E FENWICK I 2150   72 71  180/  6/  8 1015.7F   1/ 7   2/ 7
OCEAN-CITY-INLET 2148   71 70  200/  5/  6 1015.5F
WACHAPREAGUE VA  2148   77 83  190/  2/  8 1015.0F
THOMAS POINT MD  2200   75 78  200/  7/  8   N/A
GOOSES REEF MD   2200   74 78  260/  6/  8 1016.0
COVE POINT MD    2148   76     150/  5/  6 1015.7F
SOLOMONS ISLAND  2148   76 80  100/  3/  5   N/A
BISHOPS HEAD MD  2148   75 83   30/  7/  9 1015.3F
PINEY POINT MD   2148           10/ 15/ 16   N/A
POTOMAC MD       2200   77 80  160/  6/ 10 1013.9    0
CAMBRIDGE MD     2148   76 82              1016.1S
LEWISETTA VA     2148   77 80  130/  5/  6 1014.8F
RAPPAHANNOCK LGT 2148           CALM  /  1 1015.8F
STINGRAY PT      2200   77 79  160/  4/  4 1015.8    0
YORK RVR RNG VA  2148   77     130/  5/  5 1015.6F
YORKTOWN VA      2148   79 79   50/  3/  4 1014.9F
JAMESTOWN VA     2200   80 83  280/  8/ 10   N/A
DOMINION TERM VA 2148   79     290/  3/  4 1015.6F
KIPTOPEKE VA     2148      75  350/  3/  6   N/A
CHES BAY BRIDGE  2148   75 76  130/  5/  9 1015.3F
CAPE HENRY VA    2148   74     130/  7/  9   N/A
WILLOUBY STN VA  2148   76      60/  6/  7 1015.3F
S CRANEY ISL VA  2148   78     360/  5/  7 1015.1F
CAPE HENRY BUOY  2200      73                N/A     1/ 9
1ST LANDING BUOY 2200   75 77              1015.4    1
CAPE CHARLES BUO 2151      72                N/A     1/ 8
64NM E OF VA BCH 2150   76 79  180/  4/  4 1015.8F   1/ 9   2/ 9
DUCK PIER NC     2148   80 76  120/  6/  7 1014.6F
44100 DUCK FRF   2105      76                N/A     1/ 7
OREGON INLET NC  2148          120/  7/ 12 1015.1F
HATTERAS NC      2148   81 79  180/  6/  8 1015.5F
DIAMOND SHLS NC  2150   80 83  210/  2/  4 1015.8F   2/ 6   2/ 6
CAPE LOOKOUT NC  2200   80     190/  5/  6 1015.6F
$$




USA.gov is the U.S. government's official web portal to all federal, state and local government web resources and services.